SCP
2 3 2 3 2 4 3 2 1 1 0 0 1 1 1 1 1 0 0 0 0 0
3 4 4 3 3 2 4 4 3 2 1 1 1 1 1 1 1 0 0 0 0 0
4 3 3 5 3 4 5 5 4 3 2 2 2 1 2 1 0 0 0 0 0 0
6 5 4 4 5 5 5 5 4 4 4 4 3 1 1 1 0 0 0 0 0 0
7 8 6 5 4 4 4 5 5 5 4 4 3 2 1 0 0 0 0 0 0 0
7 8 6 6 4 2 3 5 5 5 4 5 3 1 1 0 0 0 0 0 0 0
2 4 7 6 2 1 1 0 0 0 3 3 0 1 0 0 0 0 0 0 0 0
0 1 3 1 0 0 0 0 0 0 0 1 0 0 0 0 0 0 0 0 0 0
0 1 1 0 0 0 0 0 0 0 0 0 0 0 0 0 0 0 0 0 0 0
1 0 1 1 0 0 0 0 0 0 0 0 0 0 0 0 0 0 0 0 0 0
1 1 1 1 1 1 0 0 0 0 0 0 0 0 0 0 0 0 0 0 0 0
0 -1 0 1 1 0 0 0 0 0 0 0 0 0 0 0 0 0 0 0 0 0
0 -0 -0 1 1 0 0 0 0 0 0 0 0 0 0 0 0 0 0 0 0 0
1 1 1 0 0 0 0 0 0 0 0 0 0 0 -0 0 0 0 0 0 0 0
Wind_Speed_500mb
111 99 99 100 95 98 101 99 93 85 81 77 76 86 77 68 63 64 62 55 46 42
105 104 97 98 97 97 96 94 95 88 87 82 76 79 79 74 65 61 61 54 45 44
101 99 101 100 94 92 97 96 95 94 86 91 80 81 85 73 67 58 57 57 46 44
104 108 105 97 94 89 94 102 98 91 89 87 86 83 83 77 63 50 51 50 45 40
101 104 101 94 91 89 92 97 97 90 93 92 92 89 84 77 63 47 46 45 47 42
103 108 97 92 83 86 93 89 91 97 96 96 97 93 83 77 66 44 33 47 45 46
78 100 95 80 77 78 87 93 88 82 80 75 68 68 70 61 51 50 45 49 47 47
38 58 79 73 72 78 79 91 97 77 59 81 79 60 60 36 32 50 47 58 49 50
23 36 64 71 72 78 74 79 75 57 71 54 44 45 56 54 74 52 48 72 57 54
40 38 45 66 74 75 72 79 86 91 72 50 65 66 67 69 86 75 92 81 58 62
27 42 25 48 62 64 74 81 88 87 68 64 74 84 79 71 82 86 82 68 59 58
34 28 18 40 60 68 76 86 86 85 84 62 64 72 78 83 96 89 71 64 59 50
35 34 43 27 58 62 69 74 99 87 70 66 74 74 74 101 91 76 64 64 57 49
24 40 29 35 59 73 64 74 90 82 72 67 73 83 62 68 66 72 74 66 61 52
Wind_Direction_500mb
216 222 227 225 227 231 229 229 228 227 229 227 225 227 227 229 232 236 241 242 240 241
227 228 233 231 229 232 233 233 232 230 231 230 229 228 226 225 228 236 244 241 237 241
231 234 233 236 235 230 234 236 234 232 231 233 230 229 226 227 227 236 240 245 234 240
231 232 230 235 237 235 235 238 237 235 230 232 232 227 226 226 229 230 231 240 243 239
233 232 233 235 237 235 237 236 238 233 230 231 231 229 222 219 218 221 225 242 239 242
234 232 233 234 236 237 235 236 232 230 231 230 224 224 214 218 211 194 229 245 250 244
240 237 236 236 236 239 240 236 231 231 229 210 192 215 209 200 184 179 205 260 240 234
244 245 244 237 237 238 242 239 233 233 222 206 186 206 186 189 191 192 197 246 231 230
2 261 238 239 235 237 240 230 210 184 171 144 169 186 195 187 223 197 217 247 230 225
318 345 230 232 235 234 234 221 203 202 212 224 205 197 199 200 210 193 207 231 229 222
291 316 242 227 234 235 225 214 211 207 194 187 195 201 210 208 197 195 208 215 221 221
276 286 291 229 224 229 221 205 206 196 202 210 208 202 201 192 195 203 194 204 212 213
266 254 277 255 233 231 222 219 211 207 204 204 190 184 187 192 196 189 195 200 196 197
276 238 265 257 236 225 210 207 205 202 202 202 198 188 195 196 200 207 199 195 191 187
Wind_Speed_850mb
111 99 99 100 95 98 101 99 93 85 81 77 76 86 77 68 63 64 62 55 46 42
105 104 97 98 97 97 96 94 95 88 87 82 76 79 79 74 65 61 61 54 45 44
101 99 101 100 94 92 97 96 95 94 86 91 80 81 85 73 67 58 57 57 46 44
104 108 105 97 94 89 94 102 98 91 89 87 86 83 83 77 63 50 51 50 45 40
101 104 101 94 91 89 92 97 97 90 93 92 92 89 84 77 63 47 46 45 47 42
103 108 97 92 83 86 93 89 91 97 96 96 97 93 83 77 66 44 33 47 45 46
78 100 95 80 77 78 87 93 88 82 80 75 68 68 70 61 51 50 45 49 47 47
38 58 79 73 72 78 79 91 97 77 59 81 79 60 60 36 32 50 47 58 49 50
23 36 64 71 72 78 74 79 75 57 71 54 44 45 56 54 74 52 48 72 57 54
40 38 45 66 74 75 72 79 86 91 72 50 65 66 67 69 86 75 92 81 58 62
27 42 25 48 62 64 74 81 88 87 68 64 74 84 79 71 82 86 82 68 59 58
34 28 18 40 60 68 76 86 86 85 84 62 64 72 78 83 96 89 71 64 59 50
35 34 43 27 58 62 69 74 99 87 70 66 74 74 74 101 91 76 64 64 57 49
24 40 29 35 59 73 64 74 90 82 72 67 73 83 62 68 66 72 74 66 61 52
Wind_Direction_850mb
216 222 227 225 227 231 229 229 228 227 229 227 225 227 227 229 232 236 241 242 240 241
227 228 233 231 229 232 233 233 232 230 231 230 229 228 226 225 228 236 244 241 237 241
231 234 233 236 235 230 234 236 234 232 231 233 230 229 226 227 227 236 240 245 234 240
231 232 230 235 237 235 235 238 237 235 230 232 232 227 226 226 229 230 231 240 243 239
233 232 233 235 237 235 237 236 238 233 230 231 231 229 222 219 218 221 225 242 239 242
234 232 233 234 236 237 235 236 232 230 231 230 224 224 214 218 211 194 229 245 250 244
240 237 236 236 236 239 240 236 231 231 229 210 192 215 209 200 184 179 205 260 240 234
244 245 244 237 237 238 242 239 233 233 222 206 186 206 186 189 191 192 197 246 231 230
2 261 238 239 235 237 240 230 210 184 171 144 169 186 195 187 223 197 217 247 230 225
318 345 230 232 235 234 234 221 203 202 212 224 205 197 199 200 210 193 207 231 229 222
291 316 242 227 234 235 225 214 211 207 194 187 195 201 210 208 197 195 208 215 221 221
276 286 291 229 224 229 221 205 206 196 202 210 208 202 201 192 195 203 194 204 212 213
266 254 277 255 233 231 222 219 211 207 204 204 190 184 187 192 196 189 195 200 196 197
276 238 265 257 236 225 210 207 205 202 202 202 198 188 195 196 200 207 199 195 191 187